Terug naar catalogus

STARLINK-5459

ActiefCommunicatieVLEO
NORAD 55669·PAYLOAD·🇺🇸 United States

Gelanceerd Feb 17, 2023 vanaf Vandenberg Space Force Base

Loading…

Volgende Passages (komende 24 uur)

TLE

VersSource: CelesTrak SupGP

Epoch: Sep 15, 2026, 02:39 UTC

1 55669C 23021AT  26258.11090278 -.00036045  00000+0 -30217-2 0  2582
2 55669  70.0021  46.8669 0003272 269.2077 239.2783 14.98335443    18

Volg STARLINK-5459 in realtime met AllMySat

Download on the App Store